Regional Weather Roundup
Issued by NWS Grand Forks, ND

Home | Current Version | Previous Version | Graphics & Text | Print | Product List | Glossary On
Versions: 1 2 3 4 5 6 7 8 9 10 11 12 13 14 15 16 17 18 19 20 21 22 23 24 25 26 27 28 29 30 31 32 33 34 35 36 37 38 39 40 41 42 43 44 45 46 47 48 49 50
000
ASUS43 KFGF 291131
RWRFGF
PRAIRIE TO PINES  WEATHER ROUNDUP
NATIONAL WEATHER SERVICE EASTERN NORTH DAKOTA/GRAND FORKS ND
600 AM CDT FRI APR 29 2016

 **SATELLITE DATA USED TO AUGMENT SKY COVER AT AUTOMATED STATIONS**
 *****  WEATHER ACROSS EASTERN NORTH DAKOTA  *****

CITY           SKY/WX    TMP DP  RH WIND       PRES   REMARKS
GRAND FORKS    MOCLDY    34  28  79 NW7       30.19S
GRAND FRKS AFB PTCLDY    34  28  77 N7        30.20S
DEVILS LAKE    CLOUDY    35  25  66 CALM      30.20S
FARGO          CLOUDY    36  32  85 E5        30.15S
WAHPETON ARPT  CLOUDY    34  32  93 SW7       30.17R
$$

 ***** WEATHER ACROSS CENTRAL AND WESTERN NORTH DAKOTA  *****

CITY           SKY/WX    TMP DP  RH WIND       PRES   REMARKS
BISMARCK       CLOUDY    36  32  85 CALM      30.17S
MINOT          PTCLDY    36  22  56 N5        30.20S
JAMESTOWN      CLOUDY    31  27  85 N8        30.16R WCI  23
MINOT AFB      MOCLDY    34  22  61 NE5       30.19F
GARRISON         N/A     32  24  72 N5        30.18S
WILLISTON      PTCLDY    34  25  69 NE7       30.17F
DICKINSON      CLOUDY    35  27  72 E5        30.12S
HETTINGER      CLOUDY    38  33  82 SE3       30.12F
$$

 *****  OTHER AIRPORT OBSERVATIONS IN OUR AREA  *****

CITY           SKY/WX    TMP DP  RH WIND       PRES   REMARKS
WALHALLA       FAIR      30  23  74 NW5       30.25R
GRAFTON AIRPOR FAIR      34  25  69 N7        30.24R
VALLEY CITY AR FAIR      37  25  60 N9        30.18R
CANDO          FAIR      28  23  80 N7        30.23S WCI  21
CAVALIER APRT  FAIR      32  25  74 NW7       30.24R
GWINNER        FAIR      36  36 100 SW8       30.16S
SHEYENNE NWR     N/A     28  27  95 W5        29.95S WCI  23
ROLLA          FAIR      28  18  64 N9        30.23R WCI  20
 ***** THE ABOVE OBSERVATIONS ARE NON NWS ARE NOT QUALITY
       CONTROLLED AND MAY MIS-REPORT RAIN FOR SNOW...
$$

  *****  WEATHER ACROSS NORTHERN MINNESOTA  *****

CITY           SKY/WX    TMP DP  RH WIND       PRES   REMARKS
FLAG ISLAND    CLEAR     37  32  81 NE6       30.24R
WARROAD        CLEAR     36  30  80 NE5       30.24R
ROSEAU         CLEAR     34  28  80 N5        30.23R
HALLOCK        CLEAR     36  27  69 NE8       30.22S
THF RVR FALLS  PTCLDY    39  27  60 NE8       30.21R
BAUDETTE       CLEAR     36  28  73 NE6       30.21R
WASKISH        CLOUDY    36  30  80 NE7       30.20R
CROOKSTON      CLOUDY    39  28  65 E7        30.20R
STEPHEN NDAWN    N/A     30  25  80 NE3         N/A
GREENBUSH NDAW   N/A     32  28  86 NE2         N/A
$$
  *****  WEATHER ACROSS CENTRAL AND WEST MINNESOTA  *****

CITY           SKY/WX    TMP DP  RH WIND       PRES   REMARKS
FOSSTON        CLOUDY    36  28  75 NE6       30.18R
BEMIDJI        PTCLDY    30  27  88 CALM      30.16S
PARK RAPIDS    CLOUDY    32  28  85 CALM      30.15S
ELBOW LAKE     FAIR      35  35 100 SW6       30.18R FOG
WADENA         FOG       32  30  93 CALM      30.15S VSB 1
DETROIT LAKES  CLOUDY    37  36  93 CALM      30.16S
MOORHEAD       CLOUDY    37  34  87 SE5       30.16S
FERGUS FALLS   CLOUDY    36  36 100 S5        30.16R FOG
MORRIS MN      CLOUDY    36  36 100 W6        30.17R
STAPLES        CLOUDY    30  30 100 CALM      30.16S
$$
  *****  WEATHER ELSEWHERE ACROSS MINNESOTA  *****

CITY           SKY/WX    TMP DP  RH WIND       PRES   REMARKS
DULUTH         CLEAR     31  25  78 N6        30.16R
INTRNTL FALLS  CLEAR     35  30  82 N7        30.20R
ELY            CLOUDY    34  30  86 CALM      30.18R
CLOQUET        CLOUDY    30  25  80 NW5       30.17R
WHEATON        CLEAR     39  37  93 S5        30.20R
BRAINERD       CLOUDY    31  26  82 CALM      30.16F
HIBBING        PTCLDY    24  23  96 CALM      30.17R
ALEXANDRIA     CLOUDY    34  33  96 N6        30.15S FOG
SAINT CLOUD    CLOUDY    31  31 100 NW3       30.15S FOG
MINNEAPOLIS    CLOUDY    36  34  92 CALM      30.16F FOG
$$

  *****  WEATHER ACROSS SOUTH DAKOTA  *****

CITY           SKY/WX    TMP DP  RH WIND       PRES   REMARKS
SIOUX FALLS    CLOUDY    40  37  89 NE3       30.14R
BROOKINGS      CLEAR     35  34  96 CALM      30.14R
WATERTOWN      CLOUDY    33  31  92 NE3       30.14S FOG
HURON          CLOUDY    38  37  97 CALM      30.17R
SISSETON         N/A     38  36  92 W3        30.16S
ABERDEEN       FOG       31  30  96 CALM      30.17R VSB 3/4
MITCHELL       CLOUDY    40  37  89 NE3       30.16S
PIERRE         CLOUDY    38  36  92 E7        30.11F
MOBRIDGE       CLOUDY    40  38  93 CALM      30.11F
RAPID CITY     CLOUDY    36  33  89 CALM      30.11S
$$

  *****  SOME WEATHER IN NEARBY STATES *****

CITY           SKY/WX    TMP DP  RH WIND       PRES   REMARKS
GLASGOW MT     CLOUDY    39  34  82 E7        30.11F
GREAT FALLS MT CLOUDY    35  33  92 CALM      29.99S
CHEYENNE WY    LGT SNOW  32  31  96 E9        29.99F FOG     WCI  24
SCOTTSBLUFF NE CLOUDY    35  33  92 SE6       30.10S
OMAHA NE       CLOUDY    45  42  89 N8        30.10F
DES MOINES IA  CLOUDY    47  42  83 N9        30.10S
DAVENPORT IA   CLOUDY    43  41  93 N7        30.11R
CHICAGO IL     CLOUDY    42  41  96 N7        30.04R FOG
EAU CLAIRE WI  CLOUDY    40  38  93 N3        30.14S
LA CROSSE WI   CLOUDY    40  36  86 N6        30.14S
$$

  *****  SOME NATIONAL WEATHER *****

CITY           SKY/WX    TMP DP  RH WIND       PRES   REMARKS
LA GUARDIA NY  CLOUDY    50  33  52 E9        30.09R
RALEIGH NC     DRZL/FOG  61  60  97 VRB3      29.97R VSB 1/2
ATLANTA GA     PTCLDY    64  57  78 W3        30.02R
NEW ORLEANS LA CLOUDY    75  72  90 SE9       29.91R FOG
OKLAHOMA CITY  CLOUDY    57  54  89 NE15      29.77F
ALBUQUERQUE NM LGT RAIN  43  40  89 NE16      29.85F
SALT LAKE CITY MOCLDY    44  34  67 CALM      29.85S
LOS ANGELES CA MOCLDY    57  50  77 VRB6      29.97S
BOISE ID       CLOUDY    49  39  68 W9        29.90R
SEATTLE WA     CLOUDY    50  42  74 SW7       30.09S
$$

*** WEATHER ACROSS MANITOBA...SASKATCHEWAN AND ONTARIO ***
                ***ONTARIO***

CITY           SKY/WX    TMP DP  RH WIND       PRES   REMARKS
GERALDTON      MOCLDY    28  27  93 N2        30.21R
THUNDER BAY    MOCLDY    27  25  93 SW5       30.20R WCI  21
SIOUX LOOKOUT  MOCLDY    39  30  70 VRB2      30.23R
TORONTO        MOCLDY    41  23  48 E5        30.09R
BIG TROUT LK   MOCLDY    30  27  86 N6        30.32R WCI  24
PICKLE LAKE    DRIZZLE   32  30  93 NE3       30.26
DRYDEN         CLOUDY    39  30  70 NE7       30.22S
KENORA         PTCLDY    34  28  80 NE7       30.24R
$$
                *** MANITOBA***

CITY           SKY/WX    TMP DP  RH WIND       PRES   REMARKS
BRANDON        PTCLDY    32  16  51 NE10      30.25S WCI  24
DAUPHIN        CLEAR     23  16  74 W7        30.29S WCI  15
ISLAND LAKE    PTCLDY    27  18  69 CALM      30.36S
PILOT MOUND      N/A     32  18  55 NE6         N/A
THE PAS        PTCLDY    34  21  60 SE5       30.30S
THOMPSON       MOCLDY    36  16  44 VRB2      30.35R
WINNIPEG       PTCLDY    28  21  74 NE6       30.26R WCI  22
LYNN LAKE      CLOUDY    34  27  75 E3        30.22S
CHURCHILL      PTCLDY    19  18  93 E3        30.46R
GILLAM         MOCLDY    25  19  80 VRB2      30.41R
$$
                ***SASKATCHEWAN***

CITY           SKY/WX    TMP DP  RH WIND       PRES   REMARKS
ESTEVAN        PTCLDY    30  18  59 E7        30.20S WCI  23
KINDERSLEY     PTCLDY    34  21  60 SE12      30.08S
LLOYDMINSTER   CLEAR     36  25  64 SE9       30.07F
PRINCE ALBERT  MOCLDY    32  28  86 E6        30.21R
REGINA         CLEAR     34  16  47 SE12      30.20S
YORKTON        CLEAR     28  23  80 CALM      30.26S
N. BATTLEFORD  CLEAR     36  25  64 E10       30.14F
LA RONGE       PTCLDY    32  23  69 NE2       30.22S
SASKATOON      PTCLDY    37  27  65 SE9       30.17F
SWIFT CURRENT  MOCLDY    30  25  80 SE8       30.11R WCI  23
$$
NOTE: THESE ARE AUTOMATED STATIONS WITH LIMITED QUALITY CONTROL
      "FAIR" INDICATES FEW OR NO CLOUDS BELOW 12,000 FEET WITH NO
      SIGNIFICANT WEATHER AND/OR OBSTRUCTIONS TO VISIBILITY.
      SKY/WX - SKY CONDITION AND SIGNIFICANT WEATHER.
      TMP - AIR TEMPERATURE.    DP   - DEWPOINT TEMPERATURE.
      RH  - RELATIVE HUMIDITY.  PRES - PRESSURE.
      HX  - HEAT INDEX.         WCI  - WIND CHILL INDEX.
$




USA.gov is the U.S. government's official web portal to all federal, state and local government web resources and services.